Location: Asheville, NC
(35.6000°N, 82.5500°W)
Time: 08:43:31
(UTC-04:00)

Amateur Radio Satellites - All Passes

Search period start: 19 October 2017 08:13
Search period end: 20 October 2017 08:13
Location: Asheville, NC, 35.6000°N, 82.5500°W

Satellite Date Start Highest point End Downlink Frequencies (MHz)
Time Altitude Azimuth
NUDT-PHONESAT 19 Oct 08:14:30 08:17:56 39° 286° (WNW) 08:21:20 437.300
XW-2B 19 Oct 08:22:02 08:25:01 23° 289° (WNW) 08:28:00 145.730 - 145.750
ZACube-1 19 Oct 08:35:49 08:36:57 11° 91° (E) 08:38:05 437.345
XW-2A 19 Oct 08:37:34 08:40:17 23° 97° (E) 08:43:00 145.665 - 145.685
SO-50 19 Oct 08:40:21 08:44:21 31° 306° (NW) 08:48:22 436.795
XW-2C 19 Oct 08:46:33 08:48:00 12° 292° (WNW) 08:49:27 145.795 - 145.815
UWE-3 19 Oct 08:52:27 08:56:36 37° 97° (E) 09:00:38 435.000/436.395/437.385
O/OREOS (USA 219) 19 Oct 08:54:09 08:57:37 21° 259° (W) 09:01:05 437.305
JUGNU 19 Oct 08:59:09 09:02:41 16° 178° (S) 09:06:13 437.505
RS-15 19 Oct 08:59:58 09:09:35 27° 35° (NE) 09:18:47 29.354- 29.394
CUTE 1.7 + AOD 2 19 Oct 09:01:48 09:05:50 47° 286° (WNW) 09:09:51 437.475
FO-29 19 Oct 09:03:03 09:07:44 36° 69° (ENE) 09:12:40 435.910
SEEDS 19 Oct 09:11:37 09:15:44 61° 284° (WNW) 09:19:49 437.485
Oscar 11 19 Oct 09:13:24 09:16:26 19° 94° (E) 09:19:26 .
YUBILEINY 19 Oct 09:19:07 09:25:57 27° 83° (E) 09:32:48 435.215
HO-68 19 Oct 09:22:58 09:29:57 56° 290° (WNW) 09:36:55 435.675
STRAND 1 19 Oct 09:25:43 09:29:09 18° 266° (W) 09:32:36 437.568
PCSat 19 Oct 09:34:31 09:39:54 72° 298° (WNW) 09:45:19 145.827
CUTE-I 19 Oct 09:39:29 09:40:23 10° 299° (WNW) 09:41:16 437.470
AAUSAT CUBESAT 2 19 Oct 09:39:47 09:43:53 68° 284° (WNW) 09:47:58 437.432
nSIGHT-1 19 Oct 09:45:36 09:47:01 12° 127° (SE) 09:48:26 .
CUBEBUG 2 19 Oct 09:47:59 09:51:55 28° 290° (WNW) 09:55:46 437.445
AO-73 19 Oct 09:47:59 09:52:20 75° 101° (E) 09:56:33 145.935
ZACube-1 19 Oct 10:09:17 10:13:32 52° 286° (WNW) 10:17:40 437.345
XW-2A 19 Oct 10:10:57 10:12:45 14° 291° (WNW) 10:14:32 145.665 - 145.685
ISS 19 Oct 10:13:41 10:16:16 22° 130° (SE) 10:18:53 437.550
PRISM 19 Oct 10:18:52 10:21:49 20° 69° (ENE) 10:24:48 437.425
UNISAT 6 19 Oct 10:23:00 10:27:31 59° 75° (ENE) 10:32:08 437.425
UWE-3 19 Oct 10:29:45 10:32:42 17° 293° (WNW) 10:35:35 435.000/436.395/437.385
TIGRISAT 19 Oct 10:38:06 10:42:42 80° 77° (ENE) 10:47:24 435.000
NO-84 19 Oct 10:46:05 10:48:18 15° 30° (NNE) 10:50:25 435.350 FM
JUGNU 19 Oct 10:47:56 10:50:55 14° 188° (S) 10:53:54 437.505
Oscar 11 19 Oct 10:48:47 10:52:33 31° 289° (WNW) 10:56:19 .
FO-29 19 Oct 10:49:05 10:53:00 22° 266° (W) 10:57:04 435.910
EO-88 19 Oct 10:50:21 10:53:19 23° 96° (E) 10:56:16 145.990 - 145.960
Max Valier Satellite 19 Oct 10:56:42 11:00:12 42° 99° (E) 11:03:40 145.860
RS-15 19 Oct 11:12:05 11:24:01 86° 61° (ENE) 11:35:14 29.354- 29.394
YUBILEINY 19 Oct 11:13:39 11:22:06 57° 281° (W) 11:30:40 435.215
SRMSAT 19 Oct 11:19:47 11:23:17 16° 175° (S) 11:26:47 437.500
nSIGHT-1 19 Oct 11:19:52 11:22:58 47° 321° (NW) 11:26:03 .
DELFI C3 19 Oct 11:20:09 11:24:02 61° 285° (WNW) 11:27:57 145.870
PCSat 19 Oct 11:23:16 11:24:14 10° 316° (NW) 11:25:12 145.827
EO-79 19 Oct 11:38:02 11:40:24 15° 67° (ENE) 11:42:46 145.935-145.965
POLYITAN 1 19 Oct 11:42:03 11:44:44 16° 67° (ENE) 11:47:25 437.675
LO-87 19 Oct 11:45:07 11:46:55 13° 93° (E) 11:48:41 145.935 - 145.965
ISS 19 Oct 11:49:45 11:52:38 28° 325° (NW) 11:55:32 437.550
PRISM 19 Oct 11:53:32 11:56:55 25° 263° (W) 12:00:19 437.425
AIST 2D 19 Oct 11:59:17 12:02:47 77° 77° (ENE) 12:06:17 435.315
QB50P2 19 Oct 12:01:02 12:04:45 30° 71° (ENE) 12:08:29 145.880/145.840
UNISAT 6 19 Oct 12:03:07 12:04:34 11° 269° (W) 12:06:02 437.425
BEESAT 3 19 Oct 12:04:27 12:06:44 15° 109° (ESE) 12:09:02 437.485
NANOSAT C BR1 19 Oct 12:05:45 12:09:19 27° 71° (ENE) 12:12:54 145.865
DUCHIFAT 1 19 Oct 12:17:00 12:20:44 31° 72° (ENE) 12:24:30 145.980
NO-84 19 Oct 12:22:29 12:26:05 65° 231° (SW) 12:29:23 435.350 FM
EO-88 19 Oct 12:24:23 12:26:45 17° 290° (WNW) 12:29:08 145.990 - 145.960
BUGSAT 1 19 Oct 12:32:26 12:33:39 11° 65° (ENE) 12:34:52 437.445
Max Valier Satellite 19 Oct 12:33:24 12:33:34 10° 293° (WNW) 12:33:44 145.860
ESTCUBE 1 19 Oct 12:38:02 12:42:20 44° 99° (E) 12:46:35 437.505/2401.250
SRMSAT 19 Oct 13:08:10 13:11:41 16° 185° (S) 13:15:13 437.500
EO-79 19 Oct 13:11:46 13:15:46 41° 261° (W) 13:19:49 145.935-145.965
POLYITAN 1 19 Oct 13:16:14 13:20:10 36° 262° (W) 13:24:08 437.675
LO-87 19 Oct 13:17:10 13:20:21 29° 287° (WNW) 13:23:31 145.935 - 145.965
BEESAT 2 19 Oct 13:20:46 13:24:17 31° 113° (ESE) 13:27:52 435.950
Oscar 19 19 Oct 13:25:02 13:29:15 26° 68° (ENE) 13:33:29 437.125/150
RS-15 19 Oct 13:27:00 13:34:46 21° 260° (W) 13:42:19 29.354- 29.394
SPROUT 19 Oct 13:33:37 13:37:44 43° 99° (E) 13:41:48 437.525
M-CUBED/EXP-1 PRIME 19 Oct 13:34:10 13:37:06 27° 68° (ENE) 13:39:56 437.505
QB50P2 19 Oct 13:37:29 13:40:31 19° 265° (W) 13:43:34 145.880/145.840
BEESAT 3 19 Oct 13:40:11 13:43:55 38° 304° (NW) 13:47:42 437.485
NANOSAT C BR1 19 Oct 13:41:44 13:44:57 21° 265° (W) 13:48:12 145.865
Gurwin Techsat 1B 19 Oct 13:46:43 13:51:15 30° 69° (ENE) 13:55:47 435.225
DUCHIFAT 1 19 Oct 13:53:31 13:56:25 18° 266° (W) 13:59:19 145.980
AO-85 19 Oct 14:02:20 14:06:09 62° 117° (ESE) 14:10:01 145.980
BUGSAT 1 19 Oct 14:04:25 14:08:28 54° 260° (W) 14:12:36 437.445
VELOX 1 19 Oct 14:09:11 14:13:38 77° 103° (ESE) 14:18:03 145.980
ESTCUBE 1 19 Oct 14:16:13 14:18:42 15° 294° (WNW) 14:21:12 437.505/2401.250
50 SAT 19 Oct 14:16:59 14:19:32 21° 97° (E) 14:22:05 437.505
BEESAT 2 19 Oct 14:59:04 15:02:03 20° 309° (NW) 15:05:04 435.950
SRMSAT 19 Oct 14:59:51 15:00:04 10° 195° (SSW) 15:00:18 437.500
Oscar 19 19 Oct 15:03:48 15:08:23 32° 263° (W) 15:13:00 437.125/150
M-CUBED/EXP-1 PRIME 19 Oct 15:09:56 15:11:32 13° 260° (W) 15:13:06 437.505
SPROUT 19 Oct 15:10:58 15:13:12 14° 293° (WNW) 15:15:25 437.525
AO-7 19 Oct 15:11:13 15:18:42 39° 63° (ENE) 15:26:10 .
DX 1 19 Oct 15:19:06 15:23:27 74° 285° (WNW) 15:27:48 434.975-435.025
Gurwin Techsat 1B 19 Oct 15:26:29 15:31:04 30° 263° (W) 15:35:42 435.225
ITAMSAT 1 19 Oct 15:34:15 15:38:34 28° 68° (ENE) 15:42:55 435.822/435.867
SO-50 19 Oct 15:35:19 15:37:05 12° 44° (NE) 15:38:51 436.795
UKube-1 19 Oct 15:45:33 15:49:48 58° 285° (WNW) 15:54:00 .
AO-85 19 Oct 15:46:01 15:46:57 11° 315° (NW) 15:47:54 145.980
50 SAT 19 Oct 15:49:38 15:51:40 15° 290° (WNW) 15:53:40 437.505
MOZHAYETS 4 19 Oct 16:07:44 16:11:45 29° 97° (E) 16:15:43
ITUPSAT 1 19 Oct 16:26:36 16:31:07 41° 99° (E) 16:35:36 437.325
BEESAT 19 Oct 16:42:40 16:47:25 64° 102° (ESE) 16:52:07 436.000
ISS 19 Oct 16:44:19 16:45:48 12° 25° (NNE) 16:47:17 437.550
DOVE 4 19 Oct 16:49:16 16:51:08 13° 65° (ENE) 16:53:00 437.250
AO-7 19 Oct 17:03:33 17:11:17 43° 259° (W) 17:19:04 .
ITAMSAT 1 19 Oct 17:13:21 17:17:53 31° 263° (W) 17:22:28 435.822/435.867
SO-50 19 Oct 17:13:29 17:18:06 84° 244° (WSW) 17:22:48 436.795
CUTE-I 19 Oct 17:38:24 17:40:33 12° 62° (ENE) 17:42:42 437.470
KKS-1 19 Oct 17:42:59 17:45:59 18° 94° (E) 17:48:59 437.445
MOZHAYETS 4 19 Oct 17:45:10 17:48:42 22° 291° (WNW) 17:52:12
nSIGHT-1 19 Oct 17:49:12 17:52:17 45° 38° (NE) 17:55:22 .
XW-2C 19 Oct 17:50:37 17:52:18 13° 68° (ENE) 17:54:00 145.795 - 145.815
CUBESAT XI-V 19 Oct 17:52:43 17:57:20 89° 283° (WNW) 18:01:55 437.345
HO-68 19 Oct 18:04:43 18:08:00 14° 56° (NE) 18:11:16 435.675
ITUPSAT 1 19 Oct 18:05:21 18:08:35 18° 294° (WNW) 18:11:49 437.325
STARS 19 Oct 18:18:39 18:21:32 17° 94° (E) 18:24:24 437.465
ISS 19 Oct 18:19:26 18:22:43 86° 46° (NE) 18:25:58 437.550
BEESAT 19 Oct 18:22:44 18:24:35 12° 297° (WNW) 18:26:26 436.000
DOVE 4 19 Oct 18:24:25 18:28:22 44° 262° (W) 18:32:26 437.250
PCSat 19 Oct 18:25:24 18:30:38 47° 59° (ENE) 18:35:49 145.827
XW-2F 19 Oct 18:34:17 18:37:52 42° 75° (ENE) 18:41:26 145.980 - 146.000
KAITUO 1B 19 Oct 18:34:26 18:37:46 32° 73° (ENE) 18:41:06 145.475/437.950
LilacSat-2 19 Oct 18:37:15 18:40:59 55° 76° (ENE) 18:44:44 437.200
XW-2D 19 Oct 18:45:41 18:49:28 70° 76° (ENE) 18:53:14 145.860 - 145.880
NUDT-PHONESAT 19 Oct 18:49:55 18:53:31 50° 76° (ENE) 18:57:07 437.300
XW-2B 19 Oct 18:59:05 19:02:52 80° 258° (WSW) 19:06:40 145.730 - 145.750
CUBEBUG 2 19 Oct 19:07:29 19:10:07 15° 66° (ENE) 19:12:46 437.445
CUTE-I 19 Oct 19:14:36 19:19:53 75° 258° (WSW) 19:25:13 437.470
KKS-1 19 Oct 19:18:31 19:22:37 36° 288° (WNW) 19:26:41 437.445
XW-2C 19 Oct 19:22:35 19:26:07 36° 262° (W) 19:29:39 145.795 - 145.815
nSIGHT-1 19 Oct 19:26:39 19:28:15 13° 232° (SW) 19:29:51 .
UWE-3 19 Oct 19:46:25 19:50:00 23° 69° (ENE) 19:53:36 435.000/436.395/437.385
HO-68 19 Oct 19:47:26 19:54:35 81° 74° (ENE) 20:01:47 435.675
CUTE 1.7 + AOD 2 19 Oct 19:50:46 19:55:00 78° 75° (ENE) 19:59:13 437.475
STARS 19 Oct 19:53:52 19:57:56 36° 288° (WNW) 20:01:59 437.465
STRAND 1 19 Oct 19:59:14 20:02:56 20° 94° (E) 20:06:35 437.568
SEEDS 19 Oct 19:59:46 20:03:52 58° 75° (ENE) 20:07:58 437.485
Oscar 11 19 Oct 20:07:29 20:08:23 11° 65° (ENE) 20:09:16 .
PCSat 19 Oct 20:09:47 20:13:36 20° 255° (WSW) 20:17:25 145.827
KAITUO 1B 19 Oct 20:10:01 20:11:48 13° 267° (W) 20:13:36 145.475/437.950
AAUSAT CUBESAT 2 19 Oct 20:26:29 20:30:26 49° 75° (ENE) 20:34:23 437.432
XW-2A 19 Oct 20:37:12 20:40:36 74° 259° (WSW) 20:44:01 145.665 - 145.685
AO-73 19 Oct 20:39:50 20:44:04 40° 73° (ENE) 20:48:20 145.935
CUBEBUG 2 19 Oct 20:41:45 20:46:13 49° 261° (W) 20:50:48 437.445
ZACube-1 19 Oct 21:00:59 21:05:33 80° 77° (ENE) 21:10:09 437.345
UWE-3 19 Oct 21:22:08 21:26:12 31° 264° (W) 21:30:21 435.000/436.395/437.385
O/OREOS (USA 219) 19 Oct 21:23:06 21:27:33 62° 108° (ESE) 21:32:05 437.305
YUBILEINY 19 Oct 21:27:08 21:35:52 64° 81° (E) 21:44:36 435.215
Max Valier Satellite 19 Oct 21:33:59 21:35:46 13° 68° (ENE) 21:37:33 145.860
STRAND 1 19 Oct 21:37:23 21:42:13 42° 289° (WNW) 21:47:02 437.568
HO-68 19 Oct 21:39:07 21:42:58 15° 269° (W) 21:46:50 435.675
Oscar 11 19 Oct 21:39:40 21:43:56 60° 260° (W) 21:48:14 .
FO-29 19 Oct 21:57:27 22:04:18 52° 100° (E) 22:11:44 435.910
BEESAT 3 19 Oct 21:59:17 22:03:03 42° 57° (ENE) 22:06:45 437.485
DELFI C3 19 Oct 22:02:05 22:05:47 44° 75° (ENE) 22:09:31 145.870
AAUSAT CUBESAT 2 19 Oct 22:05:24 22:06:06 10° 268° (W) 22:06:49 437.432
AO-73 19 Oct 22:17:31 22:20:25 17° 267° (W) 22:23:18 145.935
UNISAT 6 19 Oct 22:19:05 22:21:51 16° 92° (E) 22:24:34 437.425
TIGRISAT 19 Oct 22:33:31 22:36:59 21° 94° (E) 22:40:22 435.000
AO-85 19 Oct 22:35:32 22:39:27 27° 54° (NE) 22:43:34 145.980
EO-88 19 Oct 22:57:28 23:01:04 63° 259° (W) 23:04:42 145.990 - 145.960
O/OREOS (USA 219) 19 Oct 23:05:37 23:07:23 12° 304° (WNW) 23:09:12 437.305
Max Valier Satellite 19 Oct 23:05:50 23:09:14 33° 262° (W) 23:12:39 145.860
BEESAT 2 19 Oct 23:17:58 23:21:59 83° 242° (WSW) 23:25:56 435.950
RS-15 19 Oct 23:24:50 23:30:58 15° 97° (E) 23:37:07 29.354- 29.394
YUBILEINY 19 Oct 23:25:21 23:31:51 24° 278° (W) 23:38:24 435.215
ESTCUBE 1 19 Oct 23:34:45 23:38:35 29° 71° (ENE) 23:42:26 437.505/2401.250
PRISM 19 Oct 23:36:40 23:40:40 48° 100° (E) 23:44:40 437.425
BEESAT 3 19 Oct 23:38:30 23:40:09 12° 252° (WSW) 23:41:47 437.485
DELFI C3 19 Oct 23:40:15 23:40:45 10° 268° (W) 23:41:14 145.870
FO-29 19 Oct 23:43:14 23:48:59 29° 293° (WNW) 23:55:10 435.910
LO-87 19 Oct 23:49:18 23:52:49 60° 77° (ENE) 23:56:23 145.935 - 145.965
UNISAT 6 19 Oct 23:54:24 23:58:43 41° 287° (WNW) 00:02:55 437.425
TIGRISAT 20 Oct 00:09:38 00:13:39 31° 289° (WNW) 00:17:35 435.000
AO-85 20 Oct 00:15:39 00:19:50 32° 247° (WSW) 00:24:17 145.980
SPROUT 20 Oct 00:24:17 00:27:38 23° 70° (ENE) 00:31:00 437.525
EO-79 20 Oct 00:59:07 01:03:05 37° 98° (E) 01:07:00 145.935-145.965
AIST 2D 20 Oct 00:59:58 01:03:20 53° 284° (WNW) 01:06:42 435.315
VELOX 1 20 Oct 01:03:16 01:07:24 45° 73° (ENE) 01:11:35 145.980
POLYITAN 1 20 Oct 01:03:36 01:07:39 42° 99° (E) 01:11:39 437.675
ESTCUBE 1 20 Oct 01:11:52 01:15:20 22° 265° (W) 01:18:49 437.505/2401.250
PRISM 20 Oct 01:13:57 01:15:29 12° 294° (WNW) 01:17:00 437.425
QB50P2 20 Oct 01:23:40 01:27:56 86° 99° (E) 01:32:10 145.880/145.840
NANOSAT C BR1 20 Oct 01:27:34 01:31:49 75° 103° (ESE) 01:36:00 145.865
RS-15 20 Oct 01:29:11 01:41:22 77° 115° (ESE) 01:53:39 29.354- 29.394
DUCHIFAT 1 20 Oct 01:38:39 01:42:54 88° 90° (E) 01:47:06 145.980
Oscar 19 20 Oct 01:42:05 01:42:57 10° 91° (E) 01:43:50 437.125/150
BUGSAT 1 20 Oct 01:49:21 01:52:53 26° 96° (E) 01:56:21 437.445
SPROUT 20 Oct 01:59:51 02:03:23 25° 264° (W) 02:06:55 437.525
Gurwin Techsat 1B 20 Oct 02:07:04 02:09:49 14° 92° (E) 02:12:35 435.225
DX 1 20 Oct 02:11:17 02:15:32 64° 75° (ENE) 02:19:49 434.975-435.025
50 SAT 20 Oct 02:13:48 02:17:01 87° 253° (WSW) 02:20:18 437.505
EO-79 20 Oct 02:35:55 02:38:29 16° 293° (WNW) 02:41:02 145.935-145.965
UKube-1 20 Oct 02:36:30 02:40:46 78° 76° (ENE) 02:45:04 .
POLYITAN 1 20 Oct 02:40:47 02:43:01 14° 293° (WNW) 02:45:15 437.675
VELOX 1 20 Oct 02:41:57 02:44:02 13° 267° (W) 02:46:08 145.980
M-CUBED/EXP-1 PRIME 20 Oct 02:47:56 02:51:16 34° 104° (ESE) 02:54:48 437.505
MOZHAYETS 4 20 Oct 03:07:01 03:10:29 21° 68° (ENE) 03:13:58
Oscar 19 20 Oct 03:17:37 03:22:44 73° 285° (WNW) 03:27:49 437.125/150
AO-7 20 Oct 03:19:17 03:22:10 12° 91° (E) 03:25:03 .
BUGSAT 1 20 Oct 03:24:49 03:28:03 22° 291° (WNW) 03:31:15 437.445
ITUPSAT 1 20 Oct 03:30:20 03:34:40 35° 71° (ENE) 03:39:01 437.325
NO-84 20 Oct 03:33:58 03:38:10 55° 129° (SE) 03:42:21 435.350 FM
RS-15 20 Oct 03:44:17 03:55:03 34° 318° (NW) 04:05:52 29.354- 29.394
Gurwin Techsat 1B 20 Oct 03:44:52 03:50:06 60° 287° (WNW) 03:55:18 435.225
BEESAT 20 Oct 03:45:52 03:50:29 52° 73° (ENE) 03:55:08 436.000
ITAMSAT 1 20 Oct 03:51:57 03:53:41 12° 91° (E) 03:55:25 435.822/435.867
M-CUBED/EXP-1 PRIME 20 Oct 04:23:36 04:25:27 14° 295° (WNW) 04:27:21 437.505
KKS-1 20 Oct 04:39:39 04:41:17 12° 64° (ENE) 04:42:55 437.445
MOZHAYETS 4 20 Oct 04:43:15 04:47:24 32° 263° (W) 04:51:33
CUBESAT XI-V 20 Oct 04:52:40 04:57:13 62° 75° (ENE) 05:01:47 437.345
AO-7 20 Oct 05:07:37 05:15:58 79° 106° (ESE) 05:24:17 .
ITUPSAT 1 20 Oct 05:08:56 05:12:31 21° 265° (W) 05:16:08 437.325
NO-84 20 Oct 05:12:30 05:15:50 21° 325° (NW) 05:19:07 435.350 FM
STARS 20 Oct 05:14:12 05:15:20 11° 64° (ENE) 05:16:29 437.465
BEESAT 20 Oct 05:26:09 05:28:31 14° 267° (W) 05:30:52 436.000
ITAMSAT 1 20 Oct 05:28:21 05:33:34 70° 286° (WNW) 05:38:45 435.822/435.867
RS-15 20 Oct 06:07:04 06:13:10 15° 352° (N) 06:19:12 29.354- 29.394
KKS-1 20 Oct 06:12:58 06:17:18 56° 260° (W) 06:21:40 437.445
DOVE 4 20 Oct 06:24:43 06:29:41 59° 100° (E) 06:34:50 437.250
CUBESAT XI-V 20 Oct 06:34:09 06:34:56 10° 269° (W) 06:35:42 437.345
XW-2B 20 Oct 06:36:09 06:37:45 12° 93° (E) 06:39:20 145.730 - 145.750
STARS 20 Oct 06:46:47 06:51:06 61° 259° (W) 06:55:27 437.465
JUGNU 20 Oct 06:56:46 06:59:17 13° 169° (S) 07:01:48 437.505
XW-2C 20 Oct 06:58:01 07:01:08 25° 96° (E) 07:04:14 145.795 - 145.815
AO-7 20 Oct 07:01:59 07:07:49 22° 304° (NW) 07:13:40 .
STRAND 1 20 Oct 07:12:22 07:16:11 22° 66° (ENE) 07:20:00 437.568
HO-68 20 Oct 07:20:19 07:24:51 17° 92° (E) 07:29:21 435.675
SO-50 20 Oct 07:24:43 07:29:07 63° 117° (ESE) 07:33:34 436.795
CUTE-I 20 Oct 07:34:36 07:39:53 56° 101° (E) 07:45:08 437.470
O/OREOS (USA 219) 20 Oct 07:36:01 07:40:37 73° 69° (ENE) 07:45:10 437.305
CUTE 1.7 + AOD 2 20 Oct 07:39:38 07:42:17 16° 94° (E) 07:44:56 437.475
KAITUO 1B 20 Oct 07:41:33 07:45:14 71° 100° (E) 07:48:53 145.475/437.950
XW-2F 20 Oct 07:42:45 07:46:29 82° 280° (W) 07:50:11 145.980 - 146.000
LilacSat-2 20 Oct 07:47:16 07:50:58 60° 285° (WNW) 07:54:39 437.200
SEEDS 20 Oct 07:48:25 07:49:56 12° 92° (E) 07:51:26 437.485
XW-2D 20 Oct 07:54:59 07:58:36 48° 285° (WNW) 08:02:11 145.860 - 145.880
NUDT-PHONESAT 20 Oct 07:56:21 08:00:00 73° 283° (WNW) 08:03:37 437.300
DOVE 4 20 Oct 08:04:06 08:06:52 15° 294° (WNW) 08:09:43 437.250
